This is the latest recevied weather packets stored in our database for station/object KJ7AZ-3. If no packets are shown the sender has not sent any weather packets the latest 1 day(s).
| Time | Temp. | Humidity | Pressure | Rain* | Wind** | Luminosity | Snow |
|---|---|---|---|---|---|---|---|
| 1778018851 | 21.11° C | - | - | 0 mm | 4.92 m/s, 280° | - | - |
| 1778013455 | 20° C | - | - | 0 mm | 4.02 m/s, 249° | - | - |
| 1778012556 | 18.89° C | - | - | 0 mm | 3.13 m/s, 243° | - | - |
| 1778008960 | 17.78° C | - | - | 0 mm | 4.02 m/s, 255° | - | - |
| 1778007162 | 17.22° C | - | - | 0 mm | 3.13 m/s, 321° | - | - |
| 1778006263 | 16.67° C | - | - | 0 mm | 3.58 m/s, 280° | - | - |
| 1778004464 | 15.56° C | - | - | 0 mm | 2.24 m/s, 290° | - | - |
| 1778003565 | 15.56° C | - | - | 0 mm | 1.79 m/s, 305° | - | - |
| 1778002666 | 13.89° C | - | - | 0 mm | 2.68 m/s, 271° | - | - |
| 1778000868 | 12.22° C | - | - | 0 mm | 1.79 m/s, 222° | - | - |
| 1777999969 | 11.67° C | - | - | 0 mm | 3.13 m/s, 270° | - | - |
| 1777999070 | 12.78° C | - | - | 0 mm | 3.13 m/s, 240° | - | - |
| 1777998172 | 14.44° C | - | - | 0 mm | 3.13 m/s, 325° | - | - |
| 1777997272 | 15.56° C | - | - | 0 mm | 3.13 m/s, 257° | - | - |
| 1777995474 | 15.56° C | - | - | 0 mm | 2.24 m/s, 285° | - | - |
| 1777994575 | 15° C | - | - | 0 mm | 4.02 m/s, 253° | - | - |
| 1777993676 | 15° C | - | - | 0 mm | 4.47 m/s, 271° | - | - |
| 1777992777 | 15.56° C | - | - | 0 mm | 3.13 m/s, 238° | - | - |
| 1777990081 | 14.44° C | - | - | 0 mm | 3.13 m/s, 281° | - | - |
| 1777988283 | 11.67° C | - | - | 0 mm | 1.34 m/s, 176° | - | - |
| 1777983788 | 9.44° C | - | - | 0 mm | 0.45 m/s, 274° | - | - |
* Rain latest hour (hover to see other rain measurements)
** Current wind speed in m/s (hover to see current wind gust speed)